Tracking 19909 objects as of 22-Oct-2019
HD Live streaming from Space Station
objects crossing your sky now

COSMOS 2251 DEB

Track COSMOS 2251 DEB now!
10-day predictions


NORAD ID: 34035
Int'l Code: 1993-036HW
Perigee: 746.7 km
Apogee: 831.8 km
Inclination: 74.1 °
Period: 100.5 minutes
Semi major axis: 7160 km
RCS: 0.0156 m2 (small)
Launch date: June 16, 1993
Source: Commonwealth of Independent States (former USSR) (CIS)
Launch site: PLESETSK MISSILE AND SPACE COMPLEX (PKMTR)

Note: This is SATELLITE DEBRIS
aabbcc
Your satellite tracking list
Your tracking list is empty




NASA's NSSDC Master Catalog

Two Line Element Set (TLE):
1 34035U 93036HW  19295.40211375  .00000505  00000-0  19070-3 0  9995
2 34035  74.0715 153.4591 0059468   9.6645  52.8020 14.32882590557322
Source of the keplerian elements: AFSPC